Location: Saint-Palais-sur-Mer
(45.6429°N, 1.0859°W)
Time: 00:26:03
(UTC+01:00)

Vanguard 1 - Pass Details

Date: 08 February 2026
Orbit: 653 x 3818 km, 34.2° (Epoch: 12 March)

Event Time Altitude Azimuth Distance (km) Brightness Sun altitude
Rises 00:31:28 0° 280° (W) 7,764 14.9 -57.9°
Reaches altitude 10° 00:37:08 10° 274° (W) 6,878 14.4 -58.2°
Enters shadow 00:48:16 30° 252° (WSW) 5,325 13.5 -58.8°
